Regional Weather Roundup
Issued by NWS Charleston, SC

Current Version | Previous Version | Text Only | Print | Product List | Glossary Off
Versions: 1 2 3 4 5 6 7 8 9 10 11 12 13 14 15 16 17 18 19 20 21 22 23 24 25 26 27 28 29 30 31 32 33 34 35 36 37 38 39 40 41 42 43 44 45 46 47 48 49 50
000 ASUS42 KCHS 272010 RWRCHS REGIONAL WEATHER ROUNDUP NATIONAL WEATHER SERVICE CHARLESTON SC 300 PM EST SAT DEC 27 2014 NOTE: "FAIR" INDICATES FEW OR NO CLOUDS BELOW 12,000 FEET WITH NO SIGNIFICANT WEATHER AND/OR OBSTRUCTIONS TO VISIBILITY. NOT ALL STATIONS ARE QUALITY CONTROLLED BY THE NATIONAL WEATHER SERVICE. USE DATA WITH CAUTION...ESPECIALLY DEWPOINT OBSERVATIONS. SCZ027-030-031-034>040-042>050-272100- ...SOUTHEAST SOUTH CAROLINA... CITY SKY/WX TMP DP RH WIND PRES REMARKS N CHARLESTON MOSUNNY 67 49 52 SE3 30.24F WATERFRONT PRK N/A 63 N/A N/A SE3 N/A MOUNT PLEASANT FAIR 66 50 55 CALM 30.24F PINOPOLIS NOT AVBL MONCKS CORNER FAIR 68 50 52 CALM 30.23F SUMMERVILLE FAIR 70 52 52 S3 30.23F BEAUFORT MCAS SUNNY 66 50 56 E5 30.24F BEAUFORT ARPT FAIR 64 52 63 NE5 30.23F HILTON HEAD IS SUNNY 63 48 59 NE5 30.25F WALTERBORO CLEAR 70 46 43 CALM 30.24S ALLENDALE FAIR 68 50 52 CALM 30.22F ...SOUTHERN MIDLANDS AND PEE DEE... CITY SKY/WX TMP DP RH WIND PRES REMARKS GEORGETOWN NOT AVBL KINGSTREE NOT AVBL ORANGEBURG MOSUNNY 67 47 48 SW7 30.23F BARNWELL FAIR 68 48 49 W3 30.23F AIKEN FAIR 64 36 34 CALM 30.26F MANNING FAIR 64 46 52 CALM 30.23F COLUMBIA MOSUNNY 66 34 30 W5 30.23S SUMTER SUNNY 66 39 37 SW8 30.21F FLORENCE SUNNY 66 40 38 S7 30.22F MYRTLE BEACH SUNNY 59 41 51 S9 30.27F N MYRTLE BEACH SUNNY 59 43 55 S5 30.25F $$ GAZ063-065-086>088-099>101-113>116-118-119-134>141-150-272100- ...SOUTHEAST GEORGIA... CITY SKY/WX TMP DP RH WIND PRES REMARKS SAVANNAH ARPT MOSUNNY 69 51 52 SE6 30.23F HUNTER AAF SUNNY 67 53 59 E7 30.22S FORT STEWART SUNNY 70 54 55 SE6 30.20F STATESBORO SUNNY 69 54 58 CALM 30.21F SYLVANIA CLEAR 68 54 60 CALM 30.22F CLAXTON FAIR 70 55 60 CALM 30.21F ...CSRA...CENTRAL AND FAR SOUTHEAST GEORGIA... CITY SKY/WX TMP DP RH WIND PRES REMARKS THOMSON SUNNY 66 46 48 CALM 30.26F AUGUSTA-BUSH SUNNY 65 42 43 NE5 30.22F AUGUSTA-DANIEL SUNNY 65 42 43 CALM 30.23F SWAINSBORO FAIR 70 54 56 CALM 30.22S VIDALIA SUNNY 70 55 60 SE3 30.20F EASTMAN FAIR 71 55 57 S3 30.22F HAZLEHURST FAIR 71 56 58 SE7 30.18F ALMA SUNNY 71 54 54 VRB7 30.19F WAYCROSS SUNNY 75 61 61 S6 30.18F JESUP FAIR 73 59 60 E3 30.20F BAXLEY FAIR 72 55 56 SE5 30.19F BRUNSWICK SUNNY 70 55 60 E12 30.22S SAINT SIMONS SUNNY 66 56 70 NE12 30.22S $$ SCZ027-028-034-036>038-045-046-048>050-GAZ119-141-272100- ...LAKE AND SUPPLEMENTAL COASTAL OBSERVATIONS... STATION/POSITION TIME TEMP WIND PRES WAVE SWELL AIR SEA DIR/SP/G HT/PER HT/PER/DIR (UTC) (F) (DEG/KT/KT) (MB) (FT/S) (FT/S/D) UPR LAKE MARION NOT AVBL WINYAH BAY 1900 58 100/ 4 1025.0S LAKE MURRAY 1900 60 110/ 2/ 3 1023.4F ACE BASIN NERRS 1900 68 60/ 2 1025.0S FORT PULASKI 2000 59 56 60/ 10/ 13 1024.4R SAPELO ISLAND 1900 67 20/ 8 1023.0F $$ ANZ835-935-AMZ111-154-330-350-352-354-370-450-454-472-272100- ...C-MAN AND BUOY OBSERVATIONS... STATION/POSITION TIME TEMP WIND PRES WAVE SWELL AIR SEA DIR/SP/G HT/PER HT/PER/DIR (UTC) (F) (DEG/KT/KT) (MB) (FT/S) (FT/S/D) BUOY 41004 2000 65 74 40/ 12/ 14 1023.5F 3/ 4 2/ 8 BUOY 41008 2000 60 59 40/ 12/ 14 1023.1F 2/ 5 2/130/ 9 FOLLY BEACH CMAN 1900 59 60/ 7/ 8 1025.1F CAPERS NEARSHORE 1900 59 40/ 8/ 8 N/A FRIPP NEARSHORE NOT AVBL STATION/POSITION TIME TEMP WIND PRES WAVE SWELL AIR SEA DIR/SP/G HT/PER HT/PER/DIR (UTC) (F) (DEG/KT/KT) (MB) (FT/S) (FT/S/D) 5E ST. MARYS GA 2000 61 N/A 2/ 5 FRYING PAN BUOY 2000 62 69 70/ 4/ 6 1025.3F 2/17 2/120/17 BUOY 41025 2000 61 1024.9S 3/16 CAPE LOOKOUT NC 1900 56 140/ 4/ 4 1024.5F BUOY 41002 1854 69 74 110/ 6/ 10 1025.0 4/16 5/ 90/16 BUOY 41010 2000 74 77 60/ 12/ 14 1022.2F 3/12 3/ 70/12 ST AUGUSTINE FL 2000 65 350/ 6/ 6 1023.0F $$

USA.gov is the U.S. government's official web portal to all federal, state and local government web resources and services.